Other Public Products
Issued by NWS Grand Forks, ND

Home | Current Version | Previous Version | Graphics & Text | Print | Product List | Glossary On
Versions: 1 2 3 4 5 6 7 8 9 10 11 12 13 14 15 16 17 18 19 20 21 22 23 24 25 26 27 28 29 30 31 32 33 34 35 36 37 38 39 40 41 42 43 44 45 46 47 48 49 50
000
FPUS83 KFGF 280531
OPUFGF
PRAIRIE TO PINES WEATHER ROUNDUP
NATIONAL WEATHER SERVICE EASTERN NORTH DAKOTA/GRAND FORKS ND
1200 AM CDT THU MAY 28 2015

 **SATELLITE DATA USED TO AUGMENT SKY COVER AT AUTOMATED STATIONS**
 *****  WEATHER ACROSS EASTERN NORTH DAKOTA  *****

CITY           SKY/WX    TMP DP  RH WIND       PRES   REMARKS
GRAND FORKS    MOCLDY    60  52  74 CALM      29.98F
GRAND FORKS AF MOCLDY    60  52  75 SE1       29.99F
GRAND CITY NWS   N/A     59 N/A N/A E3          N/A
BUXTON           N/A     69  56  62 NE2         N/A
DEVILS LAKE    CLOUDY    63  52  67 SW7       30.01R
FARGO          CLOUDY    65  55  70 E7        29.97F
WAHPETON ARPT  MOCLDY    64  52  63 NE7       29.98S
$$

 *****  WEATHER ACROSS CENTRAL AND WESTERN NORTH DAKOTA  *****

CITY           SKY/WX    TMP DP  RH WIND       PRES   REMARKS
JAMESTOWN      CLOUDY    62  56  80 E6        29.97S
BISMARCK       CLOUDY    61  59  93 E7        29.95F
MINOT          LGT RAIN  60  56  86 E10       29.94S
MINOT AFB      LGT RAIN  59  59 100 E6        29.94S
GARRISON         N/A     60  58  92 E10       29.93F
WILLISTON      CLOUDY    58  55  90 NW3       29.91F
DICKINSON      CLOUDY    57  54  89 S9        29.90S
HETTINGER      MOCLDY    54  53  97 E5        29.94F
$$

 *****  OTHER OBSERVATIONS NORTHEAST NORTH DAKOTA  *****

CITY           SKY/WX    TMP DP  RH WIND       PRES   REMARKS
WALHALLA         N/A     57  39  51 MISG      30.01S
LANGDON        FAIR      59  43  55 E10       30.01S
CAVALIER       FAIR      59  43  55 NE9       29.99F
GRAFTON        FAIR      59  46  63 NE10      29.99F
CANDO          MOCLDY    59  55  88 SW9       30.02R
FORT TOTTEN      N/A     63  50  63 S6        29.95
ROLLA          CLOUDY    59  45  58 S12       30.03R
RUGBY          NOT AVBL
 ***** THE ABOVE OBSERVATIONS ARE NON NWS ARE NOT QUALITY
        CONTROLLED AND MAY MIS-REPORT RAIN FOR SNOW...
$$

 *****  OTHER OBSERVATIONS SOUTHEAST NORTH DAKOTA *****

CITY           SKY/WX    TMP DP  RH WIND       PRES   REMARKS
COOPERSTOWN    NOT AVBL
VALLEY CITY    MOCLDY    63  57  82 NE6       29.97F
OAKES            N/A     64  57  77 E13       29.97S
GWINNER        NOT AVBL
SHEYENNE NWR     N/A     63  54  73 W2        29.95S
BUFFALO        NOT AVBL
WYNDMERE         N/A     68  54  60 E7          N/A
 ***** THE ABOVE OBSERVATIONS ARE NON NWS ARE NOT QUALITY
       CONTROLLED AND MAY MIS-REPORT RAIN FOR SNOW...
$$

  *****  WEATHER ACROSS NORTHERN MINNESOTA  *****

CITY           SKY/WX    TMP DP  RH WIND       PRES   REMARKS
FLAG ISLAND    PTCLDY    57  46  67 NE7       30.03R
WARROAD        PTCLDY    57  54  88 E5        30.04R
ROSEAU         MOCLDY    55  48  76 E6        30.02S
HALLOCK        CLEAR     57  46  67 NE7       29.99F
THF RVR FALLS  PTCLDY    63  48  59 E5        30.02S
HALSTAD          N/A     65  52  62 E6          N/A
FOSSTON        MOCLDY    57  48  72 CALM      30.02R
BAUDETTE       CLEAR     52  45  77 CALM      30.04R
WASKISH        CLEAR     54  52  94 CALM      30.03S
CROOKSTON      PTCLDY    63  52  67 E6        30.00F
$$
  *****  WEATHER ACROSS CENTRAL AND WEST MINNESOTA  *****

CITY           SKY/WX    TMP DP  RH WIND       PRES   REMARKS
BEMIDJI        PTCLDY    56  51  81 CALM      30.03R
PARK RAPIDS    MOCLDY    62  53  72 CALM      30.02S
WADENA         PTCLDY    59  55  88 CALM      30.02R
DETROIT LAKES  MOCLDY    63  55  77 NW10      30.03R
MOORHEAD       MOCLDY    66  55  68 NE8       29.98F
FERGUS FALLS   MOCLDY    70  52  52 E7        29.99S
ELBOW LAKE     FAIR      67  55  65 E6        30.00S
MORRIS MN      PTCLDY    66  54  63 SE7       29.99S
STAPLES        PTCLDY    59  54  82 CALM      30.02S
WHEATON        MOCLDY    66  54  63 S8        30.00R
$$
  *****  WEATHER ELSEWHERE ACROSS MINNESOTA  *****

CITY           SKY/WX    TMP DP  RH WIND       PRES   REMARKS
DULUTH         CLEAR     60  49  66 E13       30.05R
INTRNTL FALLS  CLEAR     52  46  80 E3        30.04R
ELY            NOT AVBL
CLOQUET        CLEAR     57  46  67 E7        30.06R
BRAINERD       PTCLDY    57  55  93 S5        30.03R
HIBBING        CLEAR     53  49  86 CALM      30.04R
ALEXANDRIA     PTCLDY    63  54  72 SE6       30.03S
SAINT CLOUD    CLEAR     58  55  90 CALM      30.02R
MINNEAPOLIS    CLEAR     69  56  62 CALM      30.03S
$$

  *****  WEATHER ACROSS SOUTH DAKOTA  *****

CITY           SKY/WX    TMP DP  RH WIND       PRES   REMARKS
SIOUX FALLS    PTCLDY    67  51  56 S8        30.03R
BROOKINGS      MOCLDY    66  52  59 SE9       30.03F
WATERTOWN      CLOUDY    69  51  52 SE3       30.01S
HURON            N/A    N/A N/A N/A MISG      29.97S
SISSETON         N/A     67  55  65 SW5       29.97F
ABERDEEN       CLOUDY    66  55  67 SW6       29.97R
MITCHELL       MOCLDY    67  56  67 S8        29.99S
PIERRE         LGT RAIN  63  60  90 S15       29.94F
MOBRIDGE       CLOUDY    62  60  93 SE14      29.92S
RAPID CITY     PTCLDY    59  56  89 CALM      29.95R
$$

  *****  SOME WEATHER IN NEARBY STATES *****

CITY           SKY/WX    TMP DP  RH WIND       PRES   REMARKS
GLASGOW MT     MOCLDY    60  55  83 E6        29.89R
GREAT FALLS MT MOCLDY    54  46  74 NW5       29.99R
CHEYENNE WY    LGT RAIN  54  52  93 E15G21    30.10F
SCOTTSBLUFF NE CLOUDY    60  55  83 SE18      29.99F
OMAHA NE       CLOUDY    67  53  61 SE7       30.07S
DES MOINES IA  MOCLDY    68  59  73 S7        30.10R
DAVENPORT IA   CLEAR     63  58  83 S6        30.14R
CHICAGO IL     CLEAR     61  55  81 S6        30.13R
EAU CLAIRE WI  CLEAR     62  54  74 CALM      30.05R
LA CROSSE WI   CLEAR     67  61  81 SE5       30.07R
$$

  *****  SOME NATIONAL WEATHER *****

CITY           SKY/WX    TMP DP  RH WIND       PRES   REMARKS
LA GUARDIA NY  MOCLDY    69  62  78 S10       30.12F
RALEIGH NC     PTCLDY    69  66  90 SW7       30.23S
ATLANTA GA     TSTM      67  64  90 NW9       30.26R FOG
NEW ORLEANS LA MOCLDY    72  68  87 CALM      30.10R
OKLAHOMA CITY  CLOUDY    69  62  78 SE12      30.06F
ALBUQUERQUE NM MOCLDY    68  32  26 E10       30.05S
SALT LAKE CITY CLOUDY    55  51  86 S8        30.10R
LOS ANGELES CA PTCLDY    59  54  83 W7        29.99R
BOISE ID       CLEAR     64  42  44 N3        30.00R
SEATTLE WA     CLEAR     67  53  61 N7        30.04R
$$

*** WEATHER ACROSS MANITOBA...SASKATCHEWAN AND ONTARIO ***
                ***ONTARIO***

CITY           SKY/WX    TMP DP  RH WIND       PRES   REMARKS
GERALDTON      PTCLDY    41  36  81 E5        30.17R
THUNDER BAY    CLEAR     50  43  76 SE16      30.12R
SIOUX LOOKOUT  CLEAR     50  36  57 E5        30.10S
TORONTO        CLOUDY    66  61  82 SW14      30.00R
BIG TROUT LK   CLEAR     37  30  75 NE6       30.19R
PICKLE LAKE    NOT AVBL
DRYDEN         CLEAR     52  41  66 E7        30.09R
KENORA         PTCLDY    52  43  71 NE7       30.06R
$$
                *** MANITOBA***

CITY           SKY/WX    TMP DP  RH WIND       PRES   REMARKS
BRANDON        CLOUDY    52  37  58 E13       30.01S
DAUPHIN        CLEAR     50  34  53 SE8       30.04S
ISLAND LAKE    PTCLDY    45  34  65 SE3       30.14S
PILOT MOUND      N/A     57  39  51 E9          N/A
THE PAS        PTCLDY    41  32  70 SE8       30.01F
THOMPSON       CLOUDY    48  27  43 E6        30.07S
WINNIPEG       PTCLDY    52  39  62 NE7       30.04S
LYNN LAKE      LGT RAIN  43  37  81 E7        29.98S
CHURCHILL      FLURRIES  30  23  74 E6        30.28R WCI  24
GILLAM         MOCLDY    34  25  69 SE6       30.21R
$$
                ***SASKATCHEWAN***

CITY           SKY/WX    TMP DP  RH WIND       PRES   REMARKS
ESTEVAN        LGT RAIN  59  55  88 NE12      29.95F
KINDERSLEY     CLOUDY    59  52  77 N7        29.94R
LLOYDMINSTER   MOCLDY    61  46  59 NW12G28   29.91R
PRINCE ALBERT  MOCLDY    46  37  71 E2        29.92F
REGINA         MOCLDY    55  46  71 S5        29.95S


USA.gov is the U.S. government's official web portal to all federal, state and local government web resources and services.